When you browse on this site, cookies collect data to enhance your experience and personalize the content and advertising you see.
Visit our Privacy Policy to learn more. By continuing to use the site, you agree to this use of cookies and data.
  • In United Kingdom
  • List of Countries
  • For 7 days
  • Water Temperature
  • Satellite Maps
  • Weather Map
  • Weather Widgets
  • user-avatar
    Login

    Hourly Weather Mohale's Hoek

    Today, 23 April, Tuesday

    Time Temperature Precipitation Wind Pressure Humidity
    00:00 +12°C° 1.2 mm 2 mps 634 mmHg 84%
    01:00 +12°C° 1.2 mm 2 mps 634 mmHg 85%
    02:00 +12°C° 0 mm 1 mps 634 mmHg 86%
    03:00 +12°C° 0.8 mm 1 mps 634 mmHg 86%
    04:00 +12°C° 0.8 mm 1 mps 633 mmHg 86%
    05:00 +12°C° 0.8 mm 1 mps 633 mmHg 86%
    06:00 +12°C° 0.7 mm 2 mps 633 mmHg 85%
    07:00 +12°C° 0.7 mm 2 mps 634 mmHg 84%
    08:00 +12°C° 0.7 mm 2 mps 634 mmHg 83%
    09:00 +13°C° 0.4 mm 2 mps 634 mmHg 79%
    10:00 +14°C° 0.4 mm 2 mps 635 mmHg 75%
    11:00 +15°C° 0.4 mm 2 mps 635 mmHg 71%
    12:00 +16°C° 0.4 mm 3 mps 635 mmHg 67%
    13:00 +17°C° 0.4 mm 3 mps 635 mmHg 64%
    14:00 +17°C° 0.4 mm 3 mps 635 mmHg 60%
    15:00 +17°C° 0.4 mm 3 mps 634 mmHg 63%
    16:00 +17°C° 0.4 mm 2 mps 634 mmHg 67%
    17:00 +16°C° 0.4 mm 2 mps 633 mmHg 70%
    18:00 +15°C° 1.4 mm 2 mps 634 mmHg 74%
    19:00 +15°C° 1.4 mm 2 mps 634 mmHg 79%
    20:00 +14°C° 1.4 mm 2 mps 634 mmHg 83%
    21:00 +14°C° 0.6 mm 2 mps 634 mmHg 84%
    22:00 +13°C° 0.6 mm 2 mps 634 mmHg 85%
    23:00 +13°C° 0.6 mm 2 mps 634 mmHg 86%

    Tomorrow, 24 April, Wednesday

    Time Temperature Precipitation Wind Pressure Humidity
    00:00 +13°C° 1.1 mm 2 mps 633 mmHg 87%
    01:00 +13°C° 1.1 mm 2 mps 633 mmHg 87%
    02:00 +13°C° 1.1 mm 1 mps 633 mmHg 88%
    03:00 +13°C° 0.2 mm 1 mps 633 mmHg 88%
    04:00 +13°C° 0.2 mm 1 mps 633 mmHg 87%
    05:00 +12°C° 0.2 mm 1 mps 632 mmHg 87%
    06:00 +13°C° 0.9 mm 2 mps 632 mmHg 86%
    07:00 +13°C° 0.9 mm 2 mps 633 mmHg 85%
    08:00 +13°C° 0.9 mm 2 mps 633 mmHg 85%
    09:00 +14°C° 1.2 mm 3 mps 633 mmHg 76%
    10:00 +16°C° 1.2 mm 3 mps 634 mmHg 68%
    11:00 +18°C° 1.2 mm 4 mps 634 mmHg 59%
    12:00 +18°C° 0.8 mm 4 mps 634 mmHg 58%
    13:00 +17°C° 0.8 mm 5 mps 633 mmHg 57%
    14:00 +19°C° 0.8 mm 5 mps 632 mmHg 56%
    15:00 +18°C° 1 mm 4 mps 632 mmHg 59%
    16:00 +17°C° 1 mm 3 mps 632 mmHg 61%
    17:00 +17°C° 1 mm 2 mps 632 mmHg 64%
    18:00 +15°C° 0.7 mm 2 mps 632 mmHg 69%
    19:00 +14°C° 0.7 mm 2 mps 632 mmHg 74%
    20:00 +13°C° 0.7 mm 2 mps 631 mmHg 79%
    21:00 +13°C° 0.2 mm 1 mps 632 mmHg 79%
    22:00 +12°C° 0.2 mm 1 mps 632 mmHg 80%
    23:00 +12°C° 0.2 mm 1 mps 632 mmHg 80%

    Day after tomorrow, 25 April, Thursday

    Time Temperature Precipitation Wind Pressure Humidity
    00:00 +11°C° 0.2 mm 1 mps 632 mmHg 81%
    01:00 +11°C° 0.2 mm 1 mps 631 mmHg 81%
    02:00 +11°C° 0.2 mm 1 mps 631 mmHg 81%
    03:00 +11°C° 0 mm 1 mps 631 mmHg 82%
    04:00 +10°C° 0 mm 1 mps 631 mmHg 83%
    05:00 +10°C° 0 mm 1 mps 630 mmHg 84%
    06:00 +11°C° 0 mm 1 mps 631 mmHg 78%
    07:00 +13°C° 0 mm 1 mps 632 mmHg 73%
    08:00 +14°C° 0 mm 1 mps 633 mmHg 68%
    09:00 +15°C° 0 mm 1 mps 633 mmHg 62%
    10:00 +17°C° 0 mm 2 mps 633 mmHg 55%
    11:00 +18°C° 0 mm 2 mps 634 mmHg 49%
    12:00 +19°C° 0 mm 3 mps 633 mmHg 46%
    13:00 +19°C° 0 mm 3 mps 633 mmHg 43%
    14:00 +20°C° 0 mm 3 mps 632 mmHg 40%
    15:00 +19°C° 0 mm 3 mps 632 mmHg 41%
    16:00 +19°C° 0 mm 2 mps 632 mmHg 43%
    17:00 +19°C° 0 mm 2 mps 632 mmHg 44%
    18:00 +18°C° 0 mm 1 mps 631 mmHg 50%
    19:00 +15°C° 0 mm 1 mps 631 mmHg 55%
    20:00 +12°C° 0 mm 0 mps 631 mmHg 60%
    21:00 +12°C° 0 mm 0 mps 631 mmHg 61%
    22:00 +11°C° 0 mm 0 mps 631 mmHg 62%
    23:00 +11°C° 0 mm 0 mps 631 mmHg 62%

    26 April, Friday

    Time Temperature Precipitation Wind Pressure Humidity
    00:00 +10°C° 0 mm 0 mps 631 mmHg 63%
    01:00 +10°C° 0 mm 0 mps 630 mmHg 64%
    02:00 +10°C° 0 mm 0 mps 630 mmHg 64%
    03:00 +9°C° 0 mm 0 mps 630 mmHg 65%
    04:00 +9°C° 0 mm 0 mps 630 mmHg 65%
    05:00 +9°C° 0 mm 0 mps 630 mmHg 66%
    06:00 +11°C° 0 mm 0 mps 631 mmHg 61%
    07:00 +12°C° 0 mm 0 mps 632 mmHg 57%
    08:00 +15°C° 0 mm 1 mps 632 mmHg 52%
    09:00 +16°C° 0 mm 1 mps 633 mmHg 46%
    10:00 +19°C° 0 mm 1 mps 633 mmHg 41%
    11:00 +20°C° 0 mm 1 mps 633 mmHg 35%
    12:00 +21°C° 0 mm 1 mps 633 mmHg 33%
    13:00 +21°C° 0 mm 2 mps 633 mmHg 31%
    14:00 +23°C° 0 mm 2 mps 633 mmHg 29%
    15:00 +21°C° 0 mm 2 mps 632 mmHg 32%
    16:00 +21°C° 0 mm 2 mps 632 mmHg 36%
    17:00 +21°C° 0 mm 1 mps 632 mmHg 39%
    18:00 +19°C° 0 mm 1 mps 632 mmHg 43%
    19:00 +16°C° 0 mm 1 mps 632 mmHg 47%
    20:00 +13°C° 0 mm 0 mps 631 mmHg 51%
    21:00 +12°C° 0 mm 0 mps 631 mmHg 51%
    22:00 +12°C° 0 mm 0 mps 631 mmHg 51%
    23:00 +12°C° 0 mm 0 mps 631 mmHg 52%

    27 April, Saturday

    Time Temperature Precipitation Wind Pressure Humidity
    00:00 +11°C° 0 mm 0 mps 631 mmHg 52%
    01:00 +11°C° 0 mm 0 mps 631 mmHg 52%
    02:00 +11°C° 0 mm 0 mps 630 mmHg 52%
    03:00 +10°C° 0 mm 0 mps 630 mmHg 53%
    04:00 +10°C° 0 mm 0 mps 630 mmHg 54%
    05:00 +10°C° 0 mm 0 mps 630 mmHg 54%
    06:00 +12°C° 0 mm 0 mps 631 mmHg 51%
    07:00 +14°C° 0 mm 0 mps 632 mmHg 49%
    08:00 +16°C° 0 mm 1 mps 633 mmHg 46%
    09:00 +19°C° 0 mm 1 mps 634 mmHg 41%
    10:00 +21°C° 0 mm 1 mps 634 mmHg 35%
    11:00 +22°C° 0 mm 1 mps 635 mmHg 29%
    12:00 +23°C° 0 mm 1 mps 634 mmHg 28%
    13:00 +24°C° 0 mm 1 mps 634 mmHg 26%
    14:00 +24°C° 0 mm 2 mps 634 mmHg 25%
    15:00 +23°C° 0 mm 1 mps 634 mmHg 30%
    16:00 +23°C° 0 mm 1 mps 634 mmHg 36%
    17:00 +22°C° 0 mm 1 mps 634 mmHg 42%
    18:00 +20°C° 0 mm 1 mps 633 mmHg 43%
    19:00 +16°C° 0 mm 0 mps 633 mmHg 44%
    20:00 +14°C° 0 mm 0 mps 633 mmHg 45%
    21:00 +13°C° 0 mm 0 mps 633 mmHg 46%
    22:00 +13°C° 0 mm 0 mps 633 mmHg 46%
    23:00 +14°C° 0 mm 1 mps 633 mmHg 46%

    28 April, Sunday

    Time Temperature Precipitation Wind Pressure Humidity
    00:00 +13°C° 0 mm 1 mps 633 mmHg 46%
    01:00 +13°C° 0 mm 1 mps 633 mmHg 46%
    02:00 +12°C° 0 mm 1 mps 633 mmHg 47%
    03:00 +12°C° 0 mm 1 mps 633 mmHg 46%
    04:00 +12°C° 0 mm 1 mps 633 mmHg 46%
    05:00 +11°C° 0 mm 1 mps 633 mmHg 45%
    06:00 +13°C° 0 mm 1 mps 634 mmHg 45%
    07:00 +15°C° 0 mm 1 mps 636 mmHg 44%
    08:00 +18°C° 0 mm 1 mps 637 mmHg 44%
    09:00 +20°C° 0 mm 1 mps 637 mmHg 37%
    10:00 +19°C° 0 mm 0 mps 638 mmHg 30%
    11:00 +21°C° 0 mm 0 mps 639 mmHg 23%
    12:00 +22°C° 0 mm 0 mps 638 mmHg 22%
    13:00 +25°C° 0 mm 1 mps 638 mmHg 20%
    14:00 +25°C° 0 mm 1 mps 638 mmHg 18%
    15:00 +24°C° 0 mm 1 mps 638 mmHg 24%
    16:00 +24°C° 0 mm 1 mps 637 mmHg 29%
    17:00 +23°C° 0 mm 1 mps 637 mmHg 34%
    18:00 +21°C° 0 mm 1 mps 637 mmHg 35%
    19:00 +19°C° 0 mm 1 mps 637 mmHg 35%
    20:00 +16°C° 0 mm 1 mps 636 mmHg 36%
    21:00 +15°C° 0 mm 1 mps 636 mmHg 37%
    22:00 +15°C° 0 mm 1 mps 636 mmHg 38%
    23:00 +15°C° 0 mm 1 mps 636 mmHg 40%
    Show more